Regional Weather Roundup
Issued by NWS

Home | Current Version | Previous Version | Graphics & Text | Print | Product List | Glossary On
Versions: 1 2 3 4 5 6 7 8 9 10 11 12 13 14 15 16 17 18 19 20 21 22 23 24 25 26 27 28 29 30 31 32 33 34 35 36 37 38 39 40 41 42 43 44 45 46 47 48 49 50
000
ASUS43 KFSD 281910
RWRSD

WEATHER ROUNDUP FOR SOUTH DAKOTA
NATIONAL WEATHER SERVICE SIOUX FALLS SD
200 PM CDT MON JUL 28 2014

NOTE: "FAIR" INDICATES FEW OR NO CLOUDS BELOW 12,000 FEET WITH NO
SIGNIFICANT WEATHER AND/OR OBSTRUCTIONS TO VISIBILITY.


SDZ001>005-009-010-012>017-282000-
NORTHWEST AND NORTH CENTRAL SOUTH DAKOTA

CITY           SKY/WX    TMP DP  RH WIND       PRES   REMARKS
BUFFALO          N/A     78  53  41 MISG      30.24F
FAITH            N/A     76  53  44 N7        30.30F
MOBRIDGE       MOSUNNY   73  51  46 VRB3      30.28F
$$

SDZ012>016-024>037-041>051-057-063-072>074-282000-
SOUTHWEST AND SOUTH CENTRAL SOUTH DAKOTA

CITY           SKY/WX    TMP DP  RH WIND       PRES   REMARKS
RAPID CTY ARPT SUNNY     77  57  50 SE13      30.30F
PIERRE         SUNNY     75  52  44 N7        30.28F
CUSTER         SUNNY     73  50  44 E9        30.40F
ELLSWORTH AFB  SUNNY     77  56  48 SE13G18   30.30F
PHILIP         SUNNY     78  51  38 SE7       30.28F
PINE RIDGE     SUNNY     80  54  40 SE9       30.30F
WINNER         FAIR      77  50  38 N7        30.30F
$$

SDZ004>011-016>023-039-040-282000-
NORTHEAST SOUTH DAKOTA

CITY           SKY/WX    TMP DP  RH WIND       PRES   REMARKS
ABERDEEN       CLOUDY    70  50  49 NE7       30.28S
WATERTOWN      CLOUDY    71  50  47 N10       30.27S
SISSETON         N/A     72  51  47 NE12      30.25F
$$

SDZ017-020-022-023-036>040-048>070-282000-
SOUTHEAST SOUTH DAKOTA

CITY           SKY/WX    TMP DP  RH WIND       PRES   REMARKS
SIOUX FALLS    PTSUNNY   71  54  54 N9G16     30.26S
HURON          PTSUNNY   72  51  47 N8        30.28S
CHAMBERLAIN    MOSUNNY   73  52  48 N3        30.29F
MITCHELL       MOSUNNY   73  54  51 NE7       30.28F
YANKTON          N/A    N/A N/A N/A MISG        N/A
$$

ABBREVIATIONS USED IN REMARKS
   TC - TEMPERATURE IN CELSIUS
  WCI - WIND CHILL INDEX
   HX - HEAT INDEX
  VSB - VISIBILITY




USA.gov is the U.S. government's official web portal to all federal, state and local government web resources and services.